Regional Weather Roundup
Issued by NWS

Home | Current Version | Previous Version | Text Only | Print | Product List | Glossary Off
Versions: 1 2 3 4 5 6 7 8 9 10 11 12 13 14 15 16 17 18 19 20 21 22 23 24 25 26 27 28 29 30 31 32 33 34 35 36 37 38 39 40 41 42 43 44 45 46 47 48 49 50

000
ASUS43 KDMX 250807
RWRIA

WEATHER ROUNDUP FOR IOWA
NATIONAL WEATHER SERVICE DES MOINES IA
200 AM CST SUN JAN 25 2015

NOTE: "FAIR" INDICATES FEW OR NO CLOUDS BELOW 12,000 FEET WITH NO
SIGNIFICANT WEATHER AND/OR OBSTRUCTIONS TO VISIBILITY.

* - THESE STATIONS ARE NOT NWS STATIONS...THUS NOT UNDER NWS
QUALITY CONTROL.  THEY ALSO DO NOT REPORT WEATHER SUCH
AS PRECIPITATION OR FOG.

IAZ001>003-012>014-020>022-031>034-043>046-250900-
   NORTHWEST IOWA

CITY           SKY/WX    TMP DP  RH WIND       PRES   REMARKS
CARROLL *      CLOUDY    37  37 100 N10G16    29.57R WCI  30
CHEROKEE *     RAIN      34  34 100 N9        29.64R WCI  26
DENISON *      LGT RAIN  39  39 100 N12G18    29.57R WCI  32
LE MARS *      LGT SNOW  34  34 100 N17       29.68R WCI  23
ORANGE CITY *  LGT SNOW  34  32  93 N10       29.66R WCI  26
SHELDON *      LGT SNOW  32  32 100 N14       29.65R WCI  22
SIOUX CITY     FLURRIES  35  33  92 N18G30    29.68R WCI  24
SPENCER        LGT SNOW  34  31  88 N13       29.63R FOG     WCI  25
STORM LAKE *   LGT SNOW  34  34 100 N15       29.61R WCI  24
$$

IAZ055>058-069>071-079>083-090>094-250900-
   SOUTHWEST IOWA

CITY           SKY/WX    TMP DP  RH WIND       PRES   REMARKS
ATLANTIC *     LGT RAIN  41  41 100 NW15G22   29.57R
AUDUBON *      RAIN      41  37  87 NW13G18   29.57R
CLARINDA *     CLOUDY    43  39  87 NW17G25   29.60S
COUNCIL BLFS * CLOUDY    41  41 100 NW14G28   29.60R
CRESTON *      CLOUDY    43  41  93 W16       29.54S
HARLAN  *      LGT RAIN  39  39 100 NW20G28   29.61R WCI  30
LAMONI         CLOUDY    43  40  89 W13       29.55S
RED OAK *      CLOUDY    43  39  87 NW16G24   29.60R
SHENANDOAH *   CLOUDY    45  39  81 NW17G29   29.61S
$$

IAZ047>049-059>061-072>074-084-250900-
   CENTRAL IOWA

CITY           SKY/WX    TMP DP  RH WIND       PRES   REMARKS
AMES           CLOUDY    38  36  92 N7        29.55F WCI  33
ANKENY *       CLOUDY    39  37  93 NE5       29.55S
CHARITON *     LGT RAIN  41  37  87 SW5       29.55R
DES MOINES     LGT RAIN  41  38  89 CALM      29.55S
GRINNELL*      LGT RAIN  37  34  87 S3        29.56R
KNOXVILLE *    CLOUDY    39  37  93 SW5       29.54S
MARSHALLTOWN   LGT RAIN  36  32  85 N7        29.55R WCI  30
PELLA *        LGT RAIN  39  37  93 CALM      29.57S
PERRY *          N/A     39  37  93 NE7       29.55R WCI  34
$$

IAZ004>006-015-016-023>025-035-036-250900-
   NORTH CENTRAL IOWA

CITY           SKY/WX    TMP DP  RH WIND       PRES   REMARKS
ALGONA *       LGT RAIN  34  34 100 N10       29.61R WCI  26
CLARION *      MIX PCPN  34  34 100 N6        29.58R WCI  29
ESTHERVILLE    LGT SNOW  32  32 100 N13       29.62R FOG     WCI  22
FORT DODGE *   CLOUDY    34  32  93 N7        29.59R WCI  28
MASON CITY     CLOUDY    34  32  92 N9        29.60R WCI  27
FOREST CITY *  DRIZZLE   34  32  93 N12       29.60R WCI  25
IOWA FALLS *   CLOUDY    34  32  93 N3        29.57R
$$

IAZ007>011-017>019-026>030-037>042-050>054-066-250900-
   NORTHEAST IOWA

CITY           SKY/WX    TMP DP  RH WIND       PRES   REMARKS
CEDAR RAPIDS   CLOUDY    36  32  85 E7        29.56S WCI  30
CHARLES CITY * CLOUDY    36  36 100 NE8       29.60R WCI  29
CLINTON *      CLOUDY    34  30  86 NE12      29.62R WCI  25
DECORAH *      MOCLDY    34  34 100 NE8       29.60S WCI  27
DUBUQUE        CLOUDY    32  31  96 NE9       29.60S FOG     WCI  24
MONTICELLO *   CLOUDY    34  34 100 CALM      29.58R
OELWEIN *      CLOUDY    36  34  93 E8        29.58R WCI  29
WATERLOO       CLOUDY    33  32  96 E6        29.57R WCI  28
$$

IAZ064-065-067-068-078-250900-
   EAST CENTRAL IOWA

CITY           SKY/WX    TMP DP  RH WIND       PRES   REMARKS
DAVENPORT      CLOUDY    33  30  88 E6        29.59S WCI  28
IOWA CITY      CLOUDY    33  31  92 CALM      29.58S
MT. PLEASANT * RAIN      39  37  93 SW6       29.59R WCI  35
MUSCATINE *    CLOUDY    34  32  93 CALM      29.58S
QUAD CITIES    CLOUDY    33  31  92 E6        29.59R WCI  28
$$

IAZ062-063-075>077-085>089-095>099-250900-
   SOUTHEAST IOWA

CITY           SKY/WX    TMP DP  RH WIND       PRES   REMARKS
BURLINGTON     CLOUDY    40  34  79 W6        29.58S
FAIRFIELD *    LGT RAIN  41  37  87 W3        29.57F
FORT MADISON * RAIN      43  37  81 W5        29.59S
KEOKUK *       MIX PCPN  41  36  81 SW6       29.58S
OSKALOOSA *    LGT RAIN  37  37 100 S5        29.57S WCI  34
CENTERVILLE *  LGT RAIN  39  39 100 S5        29.57S
OTTUMWA        LGT RAIN  38  38 100 S5        29.56F WCI  34
WASHINGTON *   CLOUDY    39  39 100 W7        29.57S WCI  34
$$

ABBREVIATIONS USED IN REMARKS
   TC - TEMPERATURES IN CELSIUS
  WCI - WIND CHILL INDEX
   HX - HEAT INDEX
  VSB - VISIBILITY
$$




USA.gov is the U.S. government's official web portal to all federal, state and local government web resources and services.